Change the Weather History Date:

Saturday, September 14, 2013

  Actual Average Record
Temperature  
Mean Temperature 54 °F -  
Max Temperature 68 °F 68 °F 78 °F (1997)
Min Temperature 41 °F 48 °F 33 °F (2003)
Degree Days  
Heating Degree Days 10    
Growing Degree Days 4 (Base 50)    
Moisture  
Dew Point 46 °F    
Average Humidity 75    
Maximum Humidity 97    
Minimum Humidity 49    
Precipitation  
Precipitation 0.13 in - - ()
Sea Level Pressure  
Sea Level Pressure 30.04 in    
Wind  
Wind Speed 4 mph (SW)    
Max Wind Speed 16 mph    
Max Gust Speed 21 mph    
Visibility 10 miles    
Events Rain    
Averages and records for this station are not official NWS values.
T = Trace of Precipitation, MM = Missing Value Source: NWS Daily Summary

Daily Weather History Graph

Daily Weather History Graph

Search for Another Location

Airport or City:

Trip Planner

Search our weather history database for the weather conditions in past years. The results will help you decide how hot, cold, wet, or windy it might be!

Date:

Astronomy

Sep. 14, 2013 Rise Set
Actual Time 6:39 AM CDT 7:14 PM CDT
Civil Twilight 6:09 AM CDT 7:44 PM CDT
Nautical Twilight 5:33 AM CDT 8:19 PM CDT
Astronomical Twilight 4:56 AM CDT 8:56 PM CDT
Moon 4:07 PM CDT (9/14) 12:58 AM CDT (9/14)
Length of Visible Light 13h 34m
Length of Day
12h 35m
Waxing Gibbous, 72% of the Moon is Illuminated
Sep 14
Waxing Gibbous
Sep 19
Full
Sep 26
Last Quarter
Oct 4
New
Oct 11
First Quarter

Hourly Weather History & Observations

Time (CDT) Temp. Windchill Dew Point Humidity Pressure Visibility Wind Dir Wind Speed Gust Speed Precip Events Conditions
12:15 AM 41.9 °F - 40.8 °F 96% 30.12 in 10.0 mi Calm Calm - N/A   Clear
12:35 AM 41.4 °F - 40.3 °F 96% 30.11 in 10.0 mi Calm Calm - N/A   Clear
12:55 AM 41.0 °F - 40.1 °F 97% 30.12 in 10.0 mi Calm Calm - N/A   Clear
1:15 AM 42.1 °F - 40.6 °F 95% 30.11 in 10.0 mi Calm Calm - N/A   Clear
1:35 AM 43.0 °F - 41.2 °F 93% 30.11 in 10.0 mi Calm Calm - N/A   Clear
1:55 AM 43.0 °F - 41.0 °F 93% 30.11 in 10.0 mi Calm Calm - N/A   Clear
2:15 AM 43.7 °F - 40.5 °F 88% 30.11 in 10.0 mi Calm Calm - N/A   Clear
2:35 AM 42.8 °F - 40.3 °F 91% 30.11 in 10.0 mi Calm Calm - N/A   Clear
2:55 AM 42.8 °F - 39.7 °F 89% 30.10 in 10.0 mi Calm Calm - N/A   Clear
3:15 AM 42.6 °F 40.9 °F 39.4 °F 88% 30.10 in 10.0 mi SSW 3.5 mph - N/A   Clear
3:35 AM 43.0 °F - 39.2 °F 86% 30.10 in 10.0 mi Calm Calm - N/A   Clear
3:55 AM 42.4 °F 40.7 °F 38.8 °F 87% 30.09 in 10.0 mi SSW 3.5 mph - N/A   Clear
4:15 AM 42.6 °F 40.9 °F 38.7 °F 86% 30.10 in 10.0 mi SW 3.5 mph - N/A   Clear
4:35 AM 42.3 °F - 38.5 °F 86% 30.09 in 10.0 mi Calm Calm - N/A   Clear
4:55 AM 42.1 °F 39.2 °F 38.3 °F 86% 30.10 in 10.0 mi SSW 4.6 mph - N/A   Clear
5:15 AM 41.9 °F 40.0 °F 38.3 °F 87% 30.10 in 10.0 mi SSW 3.5 mph - N/A   Clear
5:35 AM 41.5 °F 38.6 °F 37.9 °F 87% 30.09 in 10.0 mi SSW 4.6 mph - N/A   Clear
5:55 AM 41.9 °F 39.0 °F 37.9 °F 86% 30.09 in 10.0 mi SSW 4.6 mph - N/A   Clear
6:15 AM 41.9 °F 40.0 °F 37.9 °F 86% 30.08 in 10.0 mi SW 3.5 mph - N/A   Clear
6:35 AM 41.9 °F 40.0 °F 37.9 °F 86% 30.09 in 10.0 mi SW 3.5 mph - N/A   Clear
6:55 AM 41.2 °F - 37.9 °F 88% 30.09 in 10.0 mi Calm Calm - N/A   Clear
7:15 AM 41.5 °F 39.6 °F 38.3 °F 88% 30.09 in 10.0 mi SW 3.5 mph - N/A   Clear
7:35 AM 42.8 °F 40.1 °F 39.2 °F 87% 30.10 in 10.0 mi SW 4.6 mph - N/A   Clear
7:55 AM 44.4 °F 42.0 °F 39.9 °F 84% 30.10 in 10.0 mi SW 4.6 mph - N/A   Clear
8:15 AM 46.2 °F 42.7 °F 41.0 °F 82% 30.10 in 10.0 mi SSW 6.9 mph - N/A   Clear
8:35 AM 47.7 °F - 42.3 °F 82% 30.10 in 10.0 mi SSW 5.8 mph - N/A   Clear
8:55 AM 49.1 °F - 42.8 °F 79% 30.10 in 10.0 mi SSW 8.1 mph - N/A   Clear
9:15 AM 51.8 °F - 44.2 °F 75% 30.10 in 10.0 mi SSW 6.9 mph - N/A   Clear
9:35 AM 54.1 °F - 45.1 °F 72% 30.09 in 10.0 mi South 8.1 mph - N/A   Clear
9:55 AM 56.7 °F - 44.8 °F 64% 30.09 in 10.0 mi SSW 6.9 mph 10.4 mph N/A   Clear
10:15 AM 58.1 °F - 45.3 °F 62% 30.08 in 10.0 mi SSW 9.2 mph 16.1 mph N/A   Clear
10:35 AM 59.2 °F - 45.9 °F 61% 30.07 in 10.0 mi SW 9.2 mph - N/A   Clear
10:55 AM 59.9 °F - 46.0 °F 60% 30.06 in 10.0 mi SW 9.2 mph 16.1 mph N/A   Clear
11:15 AM 60.8 °F - 46.2 °F 59% 30.05 in 10.0 mi SSW 9.2 mph - N/A   Clear
11:35 AM 62.4 °F - 46.8 °F 57% 30.04 in 10.0 mi SW 12.7 mph 19.6 mph N/A   Clear
11:55 AM 62.6 °F - 46.9 °F 57% 30.04 in 10.0 mi SW 10.4 mph 13.8 mph N/A   Clear
12:15 PM 63.9 °F - 48.0 °F 56% 30.03 in 10.0 mi SW 11.5 mph 18.4 mph N/A   Clear
12:35 PM 64.8 °F - 48.2 °F 55% 30.02 in 10.0 mi SSW 9.2 mph - N/A   Clear
12:55 PM 64.4 °F - 47.7 °F 55% 30.02 in 10.0 mi SW 10.4 mph - N/A   Clear
1:15 PM 64.4 °F - 48.0 °F 55% 30.01 in 10.0 mi SSW 6.9 mph - N/A   Clear
1:35 PM 65.5 °F - 48.0 °F 53% 30.00 in 10.0 mi SSW 9.2 mph - N/A   Clear
1:55 PM 66.4 °F - 47.7 °F 51% 30.00 in 10.0 mi SSW 10.4 mph 19.6 mph N/A   Clear
2:15 PM 66.9 °F - 48.0 °F 51% 29.99 in 10.0 mi SW 13.8 mph 19.6 mph N/A   Clear
2:35 PM 67.3 °F - 47.7 °F 49% 29.98 in 10.0 mi SW 16.1 mph 20.7 mph N/A   Clear
2:55 PM 68.0 °F - 48.0 °F 49% 29.97 in 10.0 mi SW 11.5 mph 19.6 mph N/A   Clear
3:15 PM 67.1 °F - 47.8 °F 50% 29.97 in 10.0 mi SSW 13.8 mph 17.3 mph N/A   Clear
3:35 PM 66.7 °F - 47.5 °F 50% 29.97 in 10.0 mi SSW 10.4 mph - N/A   Clear
3:55 PM 65.8 °F - 47.5 °F 52% 29.96 in 10.0 mi SSW 8.1 mph - N/A   Clear
4:15 PM 65.3 °F - 47.7 °F 53% 29.96 in 10.0 mi SW 6.9 mph - N/A   Clear
4:35 PM 64.9 °F - 49.3 °F 57% 29.98 in 10.0 mi SW 5.8 mph - N/A   Clear
4:55 PM 64.6 °F - 48.9 °F 57% 29.97 in 10.0 mi SSW 6.9 mph - N/A   Clear
5:15 PM 63.9 °F - 49.5 °F 59% 29.97 in 10.0 mi SSW 4.6 mph - N/A   Clear
5:35 PM 63.5 °F - 49.3 °F 60% 29.98 in 10.0 mi SW 4.6 mph - N/A   Clear
5:55 PM 61.9 °F - 50.5 °F 66% 29.98 in 10.0 mi Calm Calm - N/A   Clear
6:15 PM 61.9 °F - 50.4 °F 66% 29.98 in 10.0 mi South 3.5 mph - N/A   Clear
6:35 PM 61.2 °F - 50.5 °F 68% 29.97 in 10.0 mi South 3.5 mph - N/A   Clear
6:55 PM 61.0 °F - 50.5 °F 68% 29.96 in 10.0 mi South 3.5 mph - N/A   Scattered Clouds
7:15 PM 60.4 °F - 50.4 °F 69% 29.96 in 10.0 mi South 4.6 mph - N/A   Scattered Clouds
7:35 PM 60.1 °F - 50.4 °F 70% 29.96 in 10.0 mi South 3.5 mph - N/A   Mostly Cloudy
7:55 PM 59.4 °F - 50.7 °F 73% 29.96 in 10.0 mi Calm Calm - N/A   Overcast
8:15 PM 59.7 °F - 50.9 °F 73% 29.96 in 10.0 mi Calm Calm - N/A   Overcast
8:35 PM 59.2 °F - 50.9 °F 74% 29.98 in 10.0 mi Calm Calm - N/A   Overcast
8:55 PM 58.6 °F - 51.1 °F 76% 29.98 in 10.0 mi SW 3.5 mph - N/A Rain Light Rain
9:15 PM 57.4 °F - 52.2 °F 83% 29.99 in 10.0 mi West 5.8 mph - N/A Rain Light Rain
9:35 PM 55.2 °F - 52.9 °F 92% 30.00 in 7.0 mi West 4.6 mph - 0.03 in Rain Rain
9:55 PM 54.7 °F - 53.2 °F 95% 30.01 in 10.0 mi WSW 3.5 mph - 0.06 in Rain Light Rain
10:15 PM 54.5 °F - 53.2 °F 96% 30.00 in 10.0 mi WSW 3.5 mph - 0.03 in Rain Light Rain
10:35 PM 54.5 °F - 53.2 °F 96% 30.00 in 10.0 mi WSW 3.5 mph - 0.04 in Rain Light Rain
10:55 PM 54.5 °F - 53.4 °F 96% 30.00 in 10.0 mi Calm Calm - 0.06 in Rain Light Rain
11:15 PM 54.5 °F - 53.6 °F 97% 29.99 in 10.0 mi SW 3.5 mph - 0.01 in Rain Rain
11:35 PM 54.5 °F - 53.6 °F 97% 29.99 in 10.0 mi SSW 3.5 mph - 0.01 in   Overcast
11:55 PM 54.1 °F - 53.2 °F 97% 29.99 in 10.0 mi SSW 3.5 mph - 0.01 in   Light Drizzle